Portland, ME

7:34 AM EDT on September 23, 2017 (GMT -0400)
Portland International

Weather History for KPWM - November, 2012

Change the Weather History Date:

Monday, November 5, 2012

  Actual Average Record
Temperature  
Mean Temperature 34 °F 43 °F  
Max Temperature 40 °F 52 °F 71 °F (1994)
Min Temperature 27 °F 34 °F 15 °F (1952)
Degree Days  
Heating Degree Days 31 22  
Month to date heating degree days 100 108  
Since 1 July heating degree days 635 832  
Cooling Degree Days 0 0  
Month to date cooling degree days 0 0  
Year to date cooling degree days 492 359  
Moisture  
Dew Point 21 °F    
Average Humidity 60    
Maximum Humidity 75    
Minimum Humidity 44    
Precipitation  
Precipitation 0.00 in 0.16 in 2.72 in (1985)
Month to date precipitation T 0.88  
Year to date precipitation 45.15 39.18  
Snow  
Snow 0.00 in 0.00 in 0.50 in (1919)
Month to date snowfall 0.0 0.1  
Since 1 July snowfall 0.0 0.1  
Since 1 September snowfall 0.0 0.1  
Snow Depth 0.00 in    
Sea Level Pressure  
Sea Level Pressure 30.02 in    
Wind  
Wind Speed 7 mph (NNW)    
Max Wind Speed 15 mph    
Max Gust Speed 20 mph    
Visibility 10 miles    
Events      
T = Trace of Precipitation, MM = Missing Value Source: NWS Daily Summary

Daily Weather History Graph

Daily Weather History Graph

Search for Another Location

Airport or City:

Trip Planner

Search our weather history database for the weather conditions in past years. The results will help you decide how hot, cold, wet, or windy it might be!

Date:

Astronomy

Nov. 05, 2012 Rise Set
Actual Time 6:22 AM EST 4:26 PM EST
Civil Twilight 5:52 AM EST 4:56 PM EST
Nautical Twilight 5:18 AM EST 5:30 PM EST
Astronomical Twilight 4:44 AM EST 6:04 PM EST
Moon 10:00 PM EST (11/5) 11:40 AM EST (11/5)
Length of Visible Light 11h 03m
Length of Day
10h 03m
Waning Gibbous, 63% of the Moon is Illuminated
Nov 5
Waning Gibbous
Nov 6
Last Quarter
Nov 13
New
Nov 20
First Quarter
Nov 28
Full

Hourly Weather History & Observations

Time (EST) Temp. Windchill Dew Point Humidity Pressure Visibility Wind Dir Wind Speed Gust Speed Precip Events Conditions
12:51 AM 37.0 °F 29.8 °F 25.0 °F 62% 29.94 in 10.0 mi North 10.4 mph - N/A   Overcast
1:51 AM 37.0 °F 31.6 °F 24.1 °F 59% 29.95 in 10.0 mi North 6.9 mph - N/A   Overcast
2:51 AM 37.0 °F 31.6 °F 24.1 °F 59% 29.95 in 10.0 mi North 6.9 mph - N/A   Overcast
3:51 AM 37.0 °F 31.6 °F 24.1 °F 59% 29.96 in 10.0 mi North 6.9 mph - N/A   Overcast
4:51 AM 37.0 °F 33.3 °F 24.1 °F 59% 29.96 in 10.0 mi North 4.6 mph - N/A   Overcast
5:51 AM 36.0 °F 28.5 °F 23.0 °F 59% 29.97 in 10.0 mi North 10.4 mph - N/A   Overcast
6:51 AM 36.0 °F 29.6 °F 23.0 °F 59% 29.99 in 10.0 mi North 8.1 mph - N/A   Overcast
7:51 AM 36.0 °F 29.0 °F 23.0 °F 59% 30.01 in 10.0 mi NNW 9.2 mph - N/A   Overcast
8:51 AM 37.0 °F 29.8 °F 21.9 °F 54% 30.01 in 10.0 mi North 10.4 mph - N/A   Overcast
9:51 AM 37.9 °F 32.1 °F 23.0 °F 55% 30.01 in 10.0 mi NNE 8.1 mph - N/A   Overcast
10:51 AM 39.0 °F 32.8 °F 21.9 °F 50% 30.00 in 10.0 mi North 9.2 mph - N/A   Overcast
11:51 AM 39.0 °F 33.4 °F 21.9 °F 50% 29.99 in 10.0 mi NNW 8.1 mph - N/A   Overcast
12:51 PM 39.0 °F 34.0 °F 23.0 °F 53% 29.99 in 10.0 mi North 6.9 mph - N/A   Overcast
1:51 PM 39.0 °F 32.8 °F 21.0 °F 49% 29.98 in 10.0 mi NW 9.2 mph - N/A   Overcast
2:51 PM 39.0 °F 31.0 °F 19.9 °F 46% 29.99 in 10.0 mi NNW 13.8 mph - N/A   Overcast
3:51 PM 37.9 °F 30.5 °F 17.1 °F 43% 30.01 in 10.0 mi NNW 11.5 mph - N/A   Overcast
4:51 PM 35.1 °F 26.9 °F 16.0 °F 46% 30.04 in 10.0 mi North 11.5 mph - N/A   Scattered Clouds
5:51 PM 32.0 °F 27.5 °F 17.1 °F 54% 30.07 in 10.0 mi North 4.6 mph - N/A   Clear
6:51 PM 32.0 °F 28.7 °F 16.0 °F 52% 30.08 in 10.0 mi NNW 3.5 mph - N/A   Clear
7:51 PM 27.0 °F 21.6 °F 18.0 °F 69% 30.09 in 10.0 mi NW 4.6 mph - N/A   Clear
8:51 PM 30.0 °F 26.5 °F 18.0 °F 61% 30.11 in 10.0 mi West 3.5 mph - N/A   Overcast
9:51 PM 30.0 °F - 18.0 °F 61% 30.11 in 10.0 mi Calm Calm - N/A   Partly Cloudy
10:51 PM 28.0 °F - 21.0 °F 75% 30.11 in 10.0 mi Calm Calm - N/A   Partly Cloudy
11:51 PM 28.9 °F - 21.9 °F 75% 30.11 in 10.0 mi Calm Calm - N/A   Overcast